BTK6316 WIOO-WALL

Flight info

Callsign BTK6316
Flight time 1h 16m
Altitude 37000
Route DCT ADKON DCT OSRUT DCT BAHAU BAHAU2A
Aircraft A20N/M-SDE2E3FGHIRWXY/LB1

Departure

Time 2026-04-17 11:46
Airport Supadio International Airport (WIOO)

Arrival

Time 2026-04-17 13:02
Airport Sultan Aji Muhammad Sulaiman Sepinggan International Airport (WALL)
Time Latitude Longitude Altitude Speed Heading
2026-04-17 11:20 -0.14709 109.40385 9 ft 0 kts 68°
2026-04-17 11:37 -0.14711 109.40380 8 ft 2 kts 68°
2026-04-17 11:37 -0.14717 109.40366 8 ft 2 kts 72°
2026-04-17 11:37 -0.14717 109.40350 8 ft 2 kts 108°
2026-04-17 11:37 -0.14709 109.40337 8 ft 2 kts 139°
2026-04-17 11:38 -0.14695 109.40329 8 ft 2 kts 163°
2026-04-17 11:38 -0.14682 109.40324 8 ft 0 kts 155°
2026-04-17 11:41 -0.14688 109.40327 8 ft 1 kts 158°
2026-04-17 11:41 -0.14707 109.40334 8 ft 4 kts 158°
2026-04-17 11:41 -0.14740 109.40348 8 ft 5 kts 158°
2026-04-17 11:42 -0.14784 109.40366 8 ft 7 kts 158°
2026-04-17 11:42 -0.14837 109.40366 8 ft 8 kts 218°
2026-04-17 11:42 -0.14876 109.40319 8 ft 8 kts 208°
2026-04-17 11:42 -0.14940 109.40333 8 ft 10 kts 158°
2026-04-17 11:43 -0.15022 109.40366 9 ft 13 kts 158°
2026-04-17 11:43 -0.15119 109.40405 10 ft 15 kts 158°
2026-04-17 11:43 -0.15222 109.40448 9 ft 15 kts 158°
2026-04-17 11:43 -0.15332 109.40492 8 ft 17 kts 158°
2026-04-17 11:44 -0.15450 109.40540 9 ft 18 kts 158°
2026-04-17 11:44 -0.15578 109.40592 8 ft 19 kts 158°
2026-04-17 11:44 -0.15715 109.40649 8 ft 21 kts 157°
2026-04-17 11:44 -0.15855 109.40707 8 ft 19 kts 157°
2026-04-17 11:45 -0.15944 109.40759 8 ft 13 kts 137°
2026-04-17 11:45 -0.15992 109.40775 8 ft 6 kts 255°
2026-04-17 11:45 -0.15956 109.40749 8 ft 2 kts 336°
2026-04-17 11:45 -0.15935 109.40739 8 ft 3 kts 336°
2026-04-17 11:46 -0.15793 109.40681 9 ft 55 kts 338°
2026-04-17 11:46 -0.15188 109.40434 10 ft 124 kts 338°
2026-04-17 11:46 -0.14181 109.40028 126 ft 167 kts 338°
2026-04-17 11:46 -0.13059 109.39564 652 ft 176 kts 338°
2026-04-17 11:47 -0.11918 109.39081 1424 ft 174 kts 336°
2026-04-17 11:47 -0.10741 109.38724 1964 ft 178 kts 359°
2026-04-17 11:47 -0.09512 109.39134 2315 ft 194 kts 35°
2026-04-17 11:47 -0.08607 109.40277 2634 ft 216 kts 68°
2026-04-17 11:48 -0.08465 109.41869 2912 ft 241 kts 105°
2026-04-17 11:48 -0.09408 109.43359 3288 ft 261 kts 144°
2026-04-17 11:48 -0.11145 109.44122 3772 ft 275 kts 165°
2026-04-17 11:48 -0.12957 109.44831 4487 ft 281 kts 144°
2026-04-17 11:49 -0.14228 109.46363 5262 ft 283 kts 110°
2026-04-17 11:49 -0.14537 109.48327 6037 ft 284 kts 88°
2026-04-17 11:49 -0.14458 109.50349 6767 ft 289 kts 87°
2026-04-17 11:49 -0.14437 109.52429 7494 ft 294 kts 91°
2026-04-17 11:50 -0.14534 109.54512 8237 ft 298 kts 94°
2026-04-17 11:50 -0.14723 109.56616 8973 ft 302 kts 96°
2026-04-17 11:50 -0.14974 109.58758 9706 ft 305 kts 97°
2026-04-17 11:50 -0.15265 109.60941 10410 ft 310 kts 98°
2026-04-17 11:51 -0.15583 109.63165 10796 ft 326 kts 99°
2026-04-17 11:51 -0.15932 109.65516 11217 ft 340 kts 99°
2026-04-17 11:51 -0.16293 109.67933 11914 ft 343 kts 99°
2026-04-17 11:51 -0.16654 109.70336 12634 ft 346 kts 100°
2026-04-17 11:52 -0.17028 109.72804 13350 ft 348 kts 100°
2026-04-17 11:52 -0.17397 109.75228 14039 ft 351 kts 100°
2026-04-17 11:52 -0.17773 109.77689 14723 ft 353 kts 100°
2026-04-17 11:52 -0.18154 109.80175 15397 ft 356 kts 101°
2026-04-17 11:53 -0.18532 109.82651 16051 ft 358 kts 101°
2026-04-17 11:53 -0.18920 109.85182 16702 ft 360 kts 101°
2026-04-17 11:53 -0.19307 109.87708 17336 ft 362 kts 101°
2026-04-17 11:53 -0.19693 109.90225 17950 ft 364 kts 101°
2026-04-17 11:54 -0.20085 109.92785 18560 ft 366 kts 101°
2026-04-17 11:54 -0.20486 109.95400 19164 ft 368 kts 101°
2026-04-17 11:54 -0.20883 109.97990 19744 ft 370 kts 101°
2026-04-17 11:54 -0.21285 110.00613 20316 ft 372 kts 101°
2026-04-17 11:55 -0.21686 110.03230 20851 ft 375 kts 101°
2026-04-17 11:55 -0.22089 110.05862 21372 ft 377 kts 101°
2026-04-17 11:55 -0.22499 110.08540 21902 ft 379 kts 101°
2026-04-17 11:55 -0.22911 110.11225 22422 ft 381 kts 101°
2026-04-17 11:56 -0.23320 110.13896 22922 ft 383 kts 101°
2026-04-17 11:56 -0.23735 110.16605 23414 ft 385 kts 100°
2026-04-17 11:56 -0.24154 110.19346 23894 ft 387 kts 100°
2026-04-17 11:56 -0.24573 110.22079 24356 ft 389 kts 100°
2026-04-17 11:57 -0.24992 110.24819 24803 ft 391 kts 100°
2026-04-17 11:57 -0.25416 110.27590 25240 ft 393 kts 100°
2026-04-17 11:57 -0.25842 110.30366 25662 ft 395 kts 100°
2026-04-17 11:57 -0.26268 110.33153 26071 ft 397 kts 100°
2026-04-17 11:58 -0.26698 110.35963 26471 ft 399 kts 100°
2026-04-17 11:58 -0.27108 110.38638 26833 ft 400 kts 99°
2026-04-17 11:58 -0.27538 110.41450 27200 ft 402 kts 99°
2026-04-17 11:58 -0.27968 110.44259 27556 ft 404 kts 99°
2026-04-17 11:59 -0.28410 110.47147 27910 ft 406 kts 99°
2026-04-17 11:59 -0.28844 110.49983 28247 ft 408 kts 99°
2026-04-17 11:59 -0.29290 110.52896 28582 ft 410 kts 99°
2026-04-17 11:59 -0.29731 110.55776 28902 ft 411 kts 99°
2026-04-17 12:00 -0.30181 110.58718 29219 ft 413 kts 99°
2026-04-17 12:00 -0.30622 110.61600 29519 ft 415 kts 99°
2026-04-17 12:00 -0.31070 110.64533 29814 ft 417 kts 99°
2026-04-17 12:00 -0.31516 110.67452 30105 ft 418 kts 99°
2026-04-17 12:01 -0.31963 110.70396 30386 ft 420 kts 99°
2026-04-17 12:01 -0.32405 110.73295 30662 ft 422 kts 99°
2026-04-17 12:01 -0.32856 110.76253 31019 ft 421 kts 98°
2026-04-17 12:01 -0.33310 110.79220 31402 ft 419 kts 98°
2026-04-17 12:02 -0.33759 110.82159 31758 ft 418 kts 98°
2026-04-17 12:02 -0.34203 110.85062 32085 ft 417 kts 98°
2026-04-17 12:02 -0.34654 110.88005 32400 ft 417 kts 98°
2026-04-17 12:02 -0.35100 110.90922 32704 ft 416 kts 98°
2026-04-17 12:03 -0.35549 110.93855 33005 ft 415 kts 98°
2026-04-17 12:03 -0.35998 110.96790 33300 ft 414 kts 98°
2026-04-17 12:03 -0.36443 110.99701 33582 ft 413 kts 98°
2026-04-17 12:03 -0.36887 111.02599 33854 ft 413 kts 98°
2026-04-17 12:04 -0.37329 111.05489 34112 ft 412 kts 98°
2026-04-17 12:04 -0.37778 111.08426 34371 ft 411 kts 98°
2026-04-17 12:04 -0.38214 111.11276 34616 ft 410 kts 98°
2026-04-17 12:04 -0.38626 111.14163 34855 ft 409 kts 97°
2026-04-17 12:05 -0.38976 111.16923 35064 ft 408 kts 96°
2026-04-17 12:05 -0.39333 111.19801 35241 ft 409 kts 96°
2026-04-17 12:05 -0.39697 111.22729 35396 ft 410 kts 96°
2026-04-17 12:05 -0.40061 111.25645 35549 ft 410 kts 96°
2026-04-17 12:06 -0.40426 111.28544 35698 ft 411 kts 96°
2026-04-17 12:06 -0.40793 111.31454 35843 ft 411 kts 96°
2026-04-17 12:06 -0.41165 111.34400 35983 ft 412 kts 96°
2026-04-17 12:06 -0.41533 111.37313 36115 ft 412 kts 96°
2026-04-17 12:07 -0.41903 111.40248 36242 ft 413 kts 96°
2026-04-17 12:07 -0.42272 111.43163 36354 ft 413 kts 96°
2026-04-17 12:07 -0.42644 111.46111 36458 ft 414 kts 97°
2026-04-17 12:07 -0.43013 111.49028 36562 ft 415 kts 97°
2026-04-17 12:08 -0.43384 111.51966 36667 ft 416 kts 97°
2026-04-17 12:08 -0.43755 111.54894 36767 ft 416 kts 97°
2026-04-17 12:08 -0.44503 111.60815 36816 ft 417 kts 97°
2026-04-17 12:09 -0.45244 111.66672 36822 ft 417 kts 96°
2026-04-17 12:09 -0.45989 111.72590 36822 ft 417 kts 96°
2026-04-17 12:10 -0.46735 111.78495 36822 ft 417 kts 97°
2026-04-17 12:10 -0.47477 111.84367 36821 ft 417 kts 97°
2026-04-17 12:11 -0.48224 111.90274 36821 ft 417 kts 97°
2026-04-17 12:12 -0.49348 111.99154 36826 ft 417 kts 97°
2026-04-17 12:12 -0.50092 112.05037 36830 ft 417 kts 97°
2026-04-17 12:13 -0.50845 112.10986 36835 ft 417 kts 97°
2026-04-17 12:13 -0.51591 112.16881 36837 ft 417 kts 97°
2026-04-17 12:14 -0.52339 112.22790 36835 ft 417 kts 97°
2026-04-17 12:14 -0.53086 112.28702 36832 ft 417 kts 96°
2026-04-17 12:15 -0.53751 112.34604 36830 ft 417 kts 96°
2026-04-17 12:15 -0.54399 112.40561 36828 ft 417 kts 96°
2026-04-17 12:16 -0.55047 112.46461 36826 ft 417 kts 96°
2026-04-17 12:16 -0.55701 112.52393 36824 ft 417 kts 96°
2026-04-17 12:17 -0.56358 112.58340 36822 ft 418 kts 96°
2026-04-17 12:17 -0.57016 112.64290 36820 ft 418 kts 96°
2026-04-17 12:18 -0.57669 112.70206 36819 ft 417 kts 96°
2026-04-17 12:18 -0.58322 112.76128 36819 ft 417 kts 96°
2026-04-17 12:19 -0.58974 112.82031 36819 ft 417 kts 96°
2026-04-17 12:19 -0.59629 112.87947 36819 ft 417 kts 95°
2026-04-17 12:20 -0.60285 112.93878 36819 ft 416 kts 95°
2026-04-17 12:20 -0.60941 112.99808 36819 ft 415 kts 95°
2026-04-17 12:21 -0.61590 113.05689 36819 ft 415 kts 95°
2026-04-17 12:21 -0.62242 113.11608 36819 ft 414 kts 95°
2026-04-17 12:22 -0.62889 113.17470 36819 ft 414 kts 95°
2026-04-17 12:22 -0.63538 113.23350 36819 ft 414 kts 95°
2026-04-17 12:23 -0.64190 113.29260 36819 ft 414 kts 95°
2026-04-17 12:23 -0.64838 113.35129 36819 ft 414 kts 95°
2026-04-17 12:24 -0.65491 113.41050 36819 ft 414 kts 95°
2026-04-17 12:24 -0.66141 113.46937 36819 ft 414 kts 95°
2026-04-17 12:25 -0.66788 113.52807 36819 ft 414 kts 95°
2026-04-17 12:25 -0.67442 113.58731 36819 ft 414 kts 95°
2026-04-17 12:26 -0.68094 113.64636 36819 ft 414 kts 95°
2026-04-17 12:26 -0.68735 113.70466 36819 ft 414 kts 95°
2026-04-17 12:27 -0.69383 113.76354 36819 ft 414 kts 95°
2026-04-17 12:27 -0.70031 113.82237 36819 ft 414 kts 95°
2026-04-17 12:28 -0.70681 113.88130 36819 ft 414 kts 95°
2026-04-17 12:28 -0.71327 113.93990 36819 ft 414 kts 95°
2026-04-17 12:29 -0.71970 113.99825 36827 ft 414 kts 95°
2026-04-17 12:29 -0.72617 114.05692 36836 ft 414 kts 95°
2026-04-17 12:30 -0.73265 114.11575 36841 ft 414 kts 95°
2026-04-17 12:30 -0.73911 114.17436 36843 ft 414 kts 95°
2026-04-17 12:31 -0.74557 114.23292 36844 ft 414 kts 95°
2026-04-17 12:31 -0.75207 114.29196 36844 ft 414 kts 95°
2026-04-17 12:32 -0.75851 114.35043 36844 ft 414 kts 95°
2026-04-17 12:32 -0.76501 114.40938 36844 ft 414 kts 95°
2026-04-17 12:33 -0.77151 114.46841 36844 ft 414 kts 95°
2026-04-17 12:33 -0.77796 114.52697 36844 ft 414 kts 95°
2026-04-17 12:34 -0.78443 114.58569 36844 ft 414 kts 95°
2026-04-17 12:34 -0.79095 114.64490 36844 ft 414 kts 95°
2026-04-17 12:35 -0.79739 114.70342 36844 ft 414 kts 95°
2026-04-17 12:35 -0.80382 114.76189 36844 ft 414 kts 95°
2026-04-17 12:37 -0.83183 114.99620 36243 ft 411 kts 100°
2026-04-17 12:37 -0.83844 115.02492 35984 ft 408 kts 102°
2026-04-17 12:38 -0.84530 115.05301 35727 ft 405 kts 102°
2026-04-17 12:38 -0.85221 115.08117 35470 ft 403 kts 102°
2026-04-17 12:38 -0.85904 115.10898 35203 ft 403 kts 102°
2026-04-17 12:38 -0.86599 115.13728 34865 ft 403 kts 102°
2026-04-17 12:39 -0.87282 115.16513 34463 ft 404 kts 102°
2026-04-17 12:39 -0.87969 115.19318 33964 ft 404 kts 102°
2026-04-17 12:39 -0.88650 115.22105 33423 ft 404 kts 103°
2026-04-17 12:39 -0.89338 115.24925 32848 ft 404 kts 103°
2026-04-17 12:40 -0.90023 115.27746 32253 ft 405 kts 103°
2026-04-17 12:40 -0.90704 115.30547 31638 ft 405 kts 103°
2026-04-17 12:40 -0.91389 115.33358 31008 ft 407 kts 103°
2026-04-17 12:40 -0.92079 115.36189 30360 ft 408 kts 104°
2026-04-17 12:41 -0.92768 115.39012 29861 ft 405 kts 104°
2026-04-17 12:41 -0.93461 115.41843 29414 ft 401 kts 104°
2026-04-17 12:41 -0.94138 115.44615 28966 ft 397 kts 104°
2026-04-17 12:41 -0.94808 115.47351 28515 ft 394 kts 104°
2026-04-17 12:42 -0.95478 115.50094 28084 ft 391 kts 104°
2026-04-17 12:42 -0.96144 115.52816 27642 ft 388 kts 105°
2026-04-17 12:42 -0.96798 115.55488 27193 ft 385 kts 105°
2026-04-17 12:42 -0.97454 115.58170 26732 ft 383 kts 105°
2026-04-17 12:43 -0.98101 115.60813 26273 ft 381 kts 105°
2026-04-17 12:43 -0.98743 115.63446 25817 ft 379 kts 105°
2026-04-17 12:43 -0.99394 115.66112 25355 ft 377 kts 105°
2026-04-17 12:43 -1.00031 115.68732 24901 ft 375 kts 105°
2026-04-17 12:44 -1.00666 115.71336 24452 ft 373 kts 105°
2026-04-17 12:44 -1.01305 115.73949 23990 ft 372 kts 105°
2026-04-17 12:44 -1.01937 115.76527 23511 ft 371 kts 105°
2026-04-17 12:44 -1.02567 115.79103 23052 ft 370 kts 105°
2026-04-17 12:45 -1.03185 115.81628 22610 ft 369 kts 105°
2026-04-17 12:45 -1.03809 115.84184 22167 ft 367 kts 105°
2026-04-17 12:45 -1.04431 115.86738 21727 ft 365 kts 105°
2026-04-17 12:45 -1.05044 115.89253 21291 ft 363 kts 105°
2026-04-17 12:46 -1.05657 115.91763 20857 ft 362 kts 105°
2026-04-17 12:46 -1.06270 115.94271 20423 ft 360 kts 105°
2026-04-17 12:46 -1.06879 115.96760 19991 ft 358 kts 105°
2026-04-17 12:46 -1.07489 115.99250 19561 ft 356 kts 105°
2026-04-17 12:47 -1.08100 116.01746 19128 ft 354 kts 105°
2026-04-17 12:47 -1.08697 116.04185 18707 ft 352 kts 105°
2026-04-17 12:47 -1.09291 116.06608 18288 ft 350 kts 104°
2026-04-17 12:47 -1.09886 116.09034 17869 ft 348 kts 104°
2026-04-17 12:48 -1.10483 116.11447 17452 ft 346 kts 105°
2026-04-17 12:48 -1.11072 116.13804 17043 ft 344 kts 105°
2026-04-17 12:48 -1.11663 116.16187 16630 ft 342 kts 104°
2026-04-17 12:48 -1.12240 116.18536 16223 ft 340 kts 104°
2026-04-17 12:49 -1.12816 116.20891 15814 ft 338 kts 104°
2026-04-17 12:49 -1.13393 116.23257 15404 ft 336 kts 104°
2026-04-17 12:49 -1.13956 116.25567 15003 ft 335 kts 104°
2026-04-17 12:49 -1.14521 116.27882 14601 ft 333 kts 104°
2026-04-17 12:50 -1.15082 116.30190 14201 ft 331 kts 104°
2026-04-17 12:50 -1.15635 116.32458 13806 ft 329 kts 104°
2026-04-17 12:50 -1.16195 116.34752 13408 ft 327 kts 104°
2026-04-17 12:50 -1.16753 116.37042 13029 ft 324 kts 104°
2026-04-17 12:51 -1.17529 116.39133 12976 ft 317 kts 124°
2026-04-17 12:51 -1.19138 116.40718 12747 ft 318 kts 150°
2026-04-17 12:51 -1.21234 116.41643 11986 ft 328 kts 159°
2026-04-17 12:51 -1.23434 116.42448 11168 ft 337 kts 160°
2026-04-17 12:52 -1.25711 116.43293 10608 ft 337 kts 159°
2026-04-17 12:52 -1.27920 116.44201 10220 ft 328 kts 156°
2026-04-17 12:52 -1.30017 116.45131 9690 ft 314 kts 155°
2026-04-17 12:52 -1.32022 116.46034 9268 ft 299 kts 155°
2026-04-17 12:53 -1.33866 116.46864 8918 ft 285 kts 155°
2026-04-17 12:53 -1.35698 116.47688 8584 ft 273 kts 155°
2026-04-17 12:53 -1.37451 116.48473 8121 ft 268 kts 155°
2026-04-17 12:53 -1.39098 116.49438 7497 ft 267 kts 133°
2026-04-17 12:54 -1.39988 116.51069 6886 ft 264 kts 99°
2026-04-17 12:54 -1.39939 116.52931 6332 ft 260 kts 76°
2026-04-17 12:54 -1.39452 116.54723 5792 ft 258 kts 74°
2026-04-17 12:54 -1.38951 116.56495 5258 ft 258 kts 74°
2026-04-17 12:55 -1.38475 116.58253 4973 ft 248 kts 75°
2026-04-17 12:55 -1.38039 116.59932 4693 ft 239 kts 75°
2026-04-17 12:55 -1.37626 116.61564 4419 ft 228 kts 76°
2026-04-17 12:55 -1.37238 116.63119 4191 ft 217 kts 76°
2026-04-17 12:56 -1.36879 116.64568 4042 ft 198 kts 76°
2026-04-17 12:56 -1.36549 116.65906 3722 ft 189 kts 76°
2026-04-17 12:56 -1.36237 116.67182 3445 ft 177 kts 75°
2026-04-17 12:56 -1.35942 116.68392 3116 ft 168 kts 75°
2026-04-17 12:57 -1.35659 116.69541 2616 ft 168 kts 75°
2026-04-17 12:57 -1.35353 116.70700 2188 ft 166 kts 71°
2026-04-17 12:57 -1.34946 116.71817 2175 ft 158 kts 66°
2026-04-17 12:57 -1.34481 116.72791 2133 ft 148 kts 62°
2026-04-17 12:58 -1.33990 116.73734 2118 ft 147 kts 61°
2026-04-17 12:58 -1.33501 116.74668 2103 ft 147 kts 61°
2026-04-17 12:58 -1.33016 116.75596 2076 ft 147 kts 61°
2026-04-17 12:58 -1.32522 116.76542 2052 ft 147 kts 61°
2026-04-17 12:59 -1.32043 116.77460 2026 ft 147 kts 61°
2026-04-17 12:59 -1.31551 116.78401 1991 ft 147 kts 61°
2026-04-17 12:59 -1.31109 116.79352 1847 ft 147 kts 65°
2026-04-17 12:59 -1.30706 116.80302 1666 ft 146 kts 66°
2026-04-17 13:00 -1.30300 116.81265 1476 ft 145 kts 66°
2026-04-17 13:00 -1.29901 116.82213 1289 ft 145 kts 66°
2026-04-17 13:00 -1.29499 116.83167 1099 ft 145 kts 65°
2026-04-17 13:00 -1.29098 116.84115 909 ft 144 kts 65°
2026-04-17 13:01 -1.28691 116.85077 713 ft 144 kts 65°
2026-04-17 13:01 -1.28291 116.86022 513 ft 143 kts 66°
2026-04-17 13:01 -1.27885 116.86951 321 ft 142 kts 64°
2026-04-17 13:01 -1.27502 116.87887 160 ft 138 kts 65°
2026-04-17 13:02 -1.27119 116.88784 35 ft 131 kts 66°
2026-04-17 13:02 -1.26820 116.89485 28 ft 79 kts 67°
2026-04-17 13:02 -1.26647 116.89890 28 ft 52 kts 66°
2026-04-17 13:02 -1.26537 116.90112 28 ft 15 kts 26°
2026-04-17 13:03 -1.26451 116.90099 29 ft 11 kts 337°
2026-04-17 13:03 -1.26381 116.90070 31 ft 9 kts 338°
2026-04-17 13:03 -1.26330 116.90037 31 ft 8 kts 299°
2026-04-17 13:03 -1.26336 116.89976 31 ft 9 kts 247°
2026-04-17 13:04 -1.26344 116.89914 31 ft 9 kts 309°
2026-04-17 13:04 -1.26300 116.89889 32 ft 0 kts 339°
2026-04-17 13:04 -1.26299 116.89889 32 ft 0 kts 339°